Погода в Хурибге

Марокко     32°52′44″N   6°54′37″W
темп.,
°C
ветер,
м/с
пор.,
м/с
влажн.,
%
обл.,
%
осадки,
мм/ч
давл.,
гПа
погр.,
м
1 августа, вс
вс101:00+16с57730 0.0 1019195
04:00+14с57820 0.0 1018198
07:00+14ссв36821 0.0 1018127
10:00+20ссв55410 0.0 1018415
13:00+26с65279 0.0 1017924
16:00+28с7628100 0.0 10141168
19:00+24с763747 0.0 1015814
22:00+18с7951100 0.0 1017337
2 августа, пн
пн201:00+16ссв696098 0.0 1017260
04:00+15ссв47620 0.0 1015157
07:00+14ссв466118 0.0 1016103
10:00+21ссв553123 0.0 1015470
13:00+26с65240 0.0 10141078
16:00+29с86270 0.0 10111512
19:00+25с87450 0.0 1013976
22:00+19с67730 0.0 1015336
3 августа, вт
вт301:00+17ссв6885100 0.0 1015252
04:00+16с58936 0.0 1014204
07:00+16ссв239310 0.0 101579
10:00+22ссв33530 0.0 1015454
13:00+28с53320 0.0 10141150
16:00+30с64260 0.0 10131765
19:00+26ссз76400 0.0 1014837
22:00+20с68600 0.0 1016262
4 августа, ср
ср401:00+18с47720 0.0 1017193
04:00+18ссв35770 0.0 1016120
07:00+17ссв33750 0.0 101755
10:00+22ссв55550 0.0 1017460
13:00+29с65330 0.0 10161180
16:00+31с86250 0.0 10151591
19:00+27с87370 0.0 1016859
22:00+22с610490 0.0 1018303
5 августа, чт
чт501:00+20с59580 0.0 1018216
04:00+19ссв46610 0.0 1017116
07:00+19ссв33580 0.0 101743
10:00+26ссв44320 0.0 1016413
13:00+31с65230 0.0 1015998
16:00+34с76200 0.0 10131353
19:00+29с87340 0.0 1013658
22:00+23с57500 0.0 1014191